Time,TemperatureF,DewpointF,PressureIn,WindDirection,WindDirectionDegrees,WindSpeedMPH,WindSpeedGustMPH,Humidity,HourlyPrecipIn,Conditions,Clouds,dailyrainin,SoftwareType,DateUTC
2013-07-01 00:00:00,65.1,39.6,29.94,NNE,22,0.0,0.0,39,0.00,,-RA,0.00,VWS V14.01,2013-07-01 04:00:00,
2013-07-01 00:01:00,65.1,39.6,29.94,North,0,0.0,0.0,39,0.00,,-RA,0.00,VWS V14.01,2013-07-01 04:01:00,
2013-07-01 00:06:00,64.8,39.2,29.94,NNE,22,0.9,0.9,39,0.00,,-RA,0.00,VWS V14.01,2013-07-01 04:06:00,
2013-07-01 00:11:00,64.6,39.7,29.94,NNE,22,2.2,2.2,40,0.00,,-RA,0.00,VWS V14.01,2013-07-01 04:11:00,
2013-07-01 00:16:00,64.2,40.0,29.94,North,0,2.2,2.2,41,0.00,,-RA,0.00,VWS V14.01,2013-07-01 04:16:00,
2013-07-01 00:21:00,63.9,39.7,29.94,NNW,338,0.0,0.0,41,0.00,,-RA,0.00,VWS V14.01,2013-07-01 04:21:00,
2013-07-01 00:26:00,63.7,39.6,29.94,NNE,22,0.0,0.0,41,0.00,,-RA,0.00,VWS V14.01,2013-07-01 04:26:00,
2013-07-01 00:31:00,63.5,39.4,29.94,NNE,22,2.0,2.0,41,0.00,,-RA,0.00,VWS V14.01,2013-07-01 04:31:00,
2013-07-01 00:36:00,63.3,39.2,29.94,NNW,338,0.0,0.0,41,0.00,,-RA,0.00,VWS V14.01,2013-07-01 04:36:00,
2013-07-01 00:41:00,63.1,39.7,29.94,ENE,68,0.0,0.0,42,0.00,,-RA,0.00,VWS V14.01,2013-07-01 04:41:00,
2013-07-01 00:46:00,63.0,39.5,29.94,North,0,0.0,0.0,42,0.00,,-RA,0.00,VWS V14.01,2013-07-01 04:46:00,
2013-07-01 00:51:00,62.8,39.4,29.94,NE,45,0.9,0.9,42,0.00,,-RA,0.00,VWS V14.01,2013-07-01 04:51:00,
2013-07-01 00:56:00,62.4,39.7,29.94,North,0,0.0,0.0,43,0.00,,-RA,0.00,VWS V14.01,2013-07-01 04:56:00,
2013-07-01 01:01:00,62.2,40.1,29.94,WNW,292,0.0,0.0,44,0.00,,-RA,0.00,VWS V14.01,2013-07-01 05:01:00,
2013-07-01 01:06:00,62.2,40.1,29.94,WNW,292,0.0,0.0,44,0.00,,-RA,0.00,VWS V14.01,2013-07-01 05:06:00,
2013-07-01 01:11:00,62.2,40.1,29.94,North,0,0.0,0.0,44,0.00,,-RA,0.00,VWS V14.01,2013-07-01 05:11:00,
2013-07-01 01:16:00,62.2,40.1,29.94,WNW,292,0.0,0.0,44,0.00,,-RA,0.00,VWS V14.01,2013-07-01 05:16:00,
2013-07-01 01:21:00,61.0,40.1,29.94,NW,315,0.0,0.0,46,0.00,,-RA,0.00,VWS V14.01,2013-07-01 05:21:00,
2013-07-01 01:26:00,60.8,39.9,29.94,NNW,338,0.0,0.0,46,0.00,,-RA,0.00,VWS V14.01,2013-07-01 05:26:00,
2013-07-01 01:31:00,60.4,40.1,29.94,NNW,338,0.0,0.0,47,0.00,,-RA,0.00,VWS V14.01,2013-07-01 05:31:00,
2013-07-01 01:36:00,60.3,40.0,29.94,WNW,292,0.0,0.0,47,0.00,,-RA,0.00,VWS V14.01,2013-07-01 05:36:00,
2013-07-01 01:41:00,60.1,39.8,29.94,North,0,0.0,0.0,47,0.00,,-RA,0.00,VWS V14.01,2013-07-01 05:41:00,
2013-07-01 01:46:00,59.9,40.2,29.97,North,0,0.9,0.9,48,0.00,,-RA,0.00,VWS V14.01,2013-07-01 05:46:00,
2013-07-01 01:51:00,59.9,40.2,29.97,North,0,0.0,0.0,48,0.00,,-RA,0.00,VWS V14.01,2013-07-01 05:51:00,
2013-07-01 01:56:00,59.7,40.0,29.97,NNW,338,2.7,2.7,48,0.00,,-RA,0.00,VWS V14.01,2013-07-01 05:56:00,
2013-07-01 02:01:00,59.7,40.0,29.97,NNW,338,2.5,2.5,48,0.00,,-RA,0.00,VWS V14.01,2013-07-01 06:01:00,
2013-07-01 02:06:00,59.7,40.5,29.97,NNW,338,0.0,0.0,49,0.00,,-RA,0.00,VWS V14.01,2013-07-01 06:06:00,
2013-07-01 02:11:00,59.7,40.5,29.97,North,0,3.4,3.4,49,0.00,,-RA,0.00,VWS V14.01,2013-07-01 06:11:00,
2013-07-01 02:16:00,59.7,40.5,29.97,North,0,0.0,0.0,49,0.00,,-RA,0.00,VWS V14.01,2013-07-01 06:16:00,
2013-07-01 02:21:00,59.5,40.4,29.97,NW,315,0.0,0.0,49,0.00,,-RA,0.00,VWS V14.01,2013-07-01 06:21:00,
2013-07-01 02:26:00,59.5,40.4,29.97,NNW,338,0.0,0.0,49,0.00,,-RA,0.00,VWS V14.01,2013-07-01 06:26:00,
2013-07-01 02:31:00,59.4,40.7,29.94,NNW,338,0.0,0.0,50,0.00,,-RA,0.00,VWS V14.01,2013-07-01 06:31:00,
2013-07-01 02:36:00,59.2,40.0,29.94,West,270,0.0,0.0,49,0.00,,-RA,0.00,VWS V14.01,2013-07-01 06:36:00,
2013-07-01 02:41:00,59.2,40.6,29.94,North,0,0.0,0.0,50,0.00,,-RA,0.00,VWS V14.01,2013-07-01 06:41:00,
2013-07-01 02:46:00,59.0,40.4,29.94,North,0,0.0,0.0,50,0.00,,-RA,0.00,VWS V14.01,2013-07-01 06:46:00,
2013-07-01 02:51:00,58.8,40.8,29.94,North,0,0.0,0.0,51,0.00,,-RA,0.00,VWS V14.01,2013-07-01 06:51:00,
2013-07-01 02:56:00,58.6,40.6,29.94,NW,315,1.3,1.3,51,0.00,,-RA,0.00,VWS V14.01,2013-07-01 06:56:00,
2013-07-01 03:01:00,58.5,40.9,29.94,NNW,338,0.0,0.0,52,0.00,,-RA,0.00,VWS V14.01,2013-07-01 07:01:00,
2013-07-01 03:06:00,58.5,40.9,29.94,NNW,338,3.4,3.4,52,0.00,,-RA,0.00,VWS V14.01,2013-07-01 07:06:00,
2013-07-01 03:11:00,58.5,40.9,29.94,WNW,292,0.0,0.0,52,0.00,,-RA,0.00,VWS V14.01,2013-07-01 07:11:00,
2013-07-01 03:16:00,58.3,40.8,29.94,NNW,338,2.2,2.2,52,0.00,,-RA,0.00,VWS V14.01,2013-07-01 07:16:00,
2013-07-01 03:21:00,58.3,40.8,29.94,North,0,0.9,0.9,52,0.00,,-RA,0.00,VWS V14.01,2013-07-01 07:21:00,
2013-07-01 03:26:00,58.5,41.4,29.94,NNW,338,1.1,1.1,53,0.00,,-RA,0.00,VWS V14.01,2013-07-01 07:26:00,
2013-07-01 03:31:00,58.3,41.2,29.94,NNE,22,1.1,1.1,53,0.00,,-RA,0.00,VWS V14.01,2013-07-01 07:31:00,
2013-07-01 03:36:00,58.5,41.4,29.94,NE,45,3.6,3.6,53,0.00,,-RA,0.00,VWS V14.01,2013-07-01 07:36:00,
2013-07-01 03:41:00,58.5,41.4,29.94,North,0,0.0,0.0,53,0.00,,-RA,0.00,VWS V14.01,2013-07-01 07:41:00,
2013-07-01 03:46:00,58.5,41.4,29.94,NW,315,1.6,1.6,53,0.00,,-RA,0.00,VWS V14.01,2013-07-01 07:46:00,
2013-07-01 03:51:00,58.5,41.4,29.94,North,0,0.0,0.0,53,0.00,,-RA,0.00,VWS V14.01,2013-07-01 07:51:00,
2013-07-01 03:56:00,58.5,41.4,29.94,NNW,338,0.0,0.0,53,0.00,,-RA,0.00,VWS V14.01,2013-07-01 07:56:00,
2013-07-01 04:01:00,58.5,41.9,29.94,North,0,2.9,2.9,54,0.00,,-RA,0.00,VWS V14.01,2013-07-01 08:01:00,
2013-07-01 04:06:00,58.5,41.9,29.94,North,0,0.9,0.9,54,0.00,,-RA,0.00,VWS V14.01,2013-07-01 08:06:00,
2013-07-01 04:11:00,58.3,41.7,29.94,WNW,292,0.0,0.0,54,0.00,,-RA,0.00,VWS V14.01,2013-07-01 08:11:00,
2013-07-01 04:16:00,58.1,41.6,29.97,North,0,0.0,0.0,54,0.00,,-RA,0.00,VWS V14.01,2013-07-01 08:16:00,
2013-07-01 04:21:00,57.9,41.4,29.97,WNW,292,0.0,0.0,54,0.00,,-RA,0.00,VWS V14.01,2013-07-01 08:21:00,
2013-07-01 04:26:00,57.7,41.7,29.97,NNW,338,1.6,1.6,55,0.00,,-RA,0.00,VWS V14.01,2013-07-01 08:26:00,
2013-07-01 04:31:00,57.6,41.5,29.97,WNW,292,0.0,0.0,55,0.00,,-RA,0.00,VWS V14.01,2013-07-01 08:31:00,
2013-07-01 04:36:00,57.6,41.5,29.97,North,0,2.2,2.2,55,0.00,,-RA,0.00,VWS V14.01,2013-07-01 08:36:00,
2013-07-01 04:41:00,57.6,42.0,29.97,North,0,1.1,1.1,56,0.00,,-RA,0.00,VWS V14.01,2013-07-01 08:41:00,
2013-07-01 04:46:00,57.6,42.0,29.97,WNW,292,2.0,2.0,56,0.00,,-RA,0.00,VWS V14.01,2013-07-01 08:46:00,
2013-07-01 04:51:00,57.6,42.0,29.97,WNW,292,0.0,0.0,56,0.00,,-RA,0.00,VWS V14.01,2013-07-01 08:51:00,
2013-07-01 04:56:00,57.6,42.5,29.97,NW,315,0.0,0.0,57,0.00,,-RA,0.00,VWS V14.01,2013-07-01 08:56:00,
2013-07-01 05:01:00,57.6,42.5,29.97,NNW,338,2.7,2.7,57,0.00,,-RA,0.00,VWS V14.01,2013-07-01 09:01:00,
2013-07-01 05:06:00,57.4,42.3,29.97,WNW,292,1.6,1.6,57,0.00,,-RA,0.00,VWS V14.01,2013-07-01 09:06:00,
2013-07-01 05:11:00,57.4,42.3,29.97,NNE,22,2.0,2.0,57,0.00,,-RA,0.00,VWS V14.01,2013-07-01 09:11:00,
2013-07-01 05:16:00,57.4,42.3,29.97,NNW,338,0.0,0.0,57,0.00,,-RA,0.00,VWS V14.01,2013-07-01 09:16:00,
2013-07-01 05:21:00,57.6,42.0,29.97,North,0,0.0,0.0,56,0.00,,-RA,0.00,VWS V14.01,2013-07-01 09:21:00,
2013-07-01 05:26:00,57.7,41.7,29.97,NNW,338,1.1,1.1,55,0.00,,-RA,0.00,VWS V14.01,2013-07-01 09:26:00,
2013-07-01 05:31:00,57.9,41.9,29.97,NNE,22,2.7,2.7,55,0.00,,-RA,0.00,VWS V14.01,2013-07-01 09:31:00,
2013-07-01 05:36:00,58.1,41.6,29.97,NE,45,0.0,0.0,54,0.00,,-RA,0.00,VWS V14.01,2013-07-01 09:36:00,
2013-07-01 05:41:00,58.3,41.7,29.97,NNE,22,2.5,2.5,54,0.00,,-RA,0.00,VWS V14.01,2013-07-01 09:41:00,
2013-07-01 05:46:00,58.1,41.6,29.97,WNW,292,0.0,0.0,54,0.00,,-RA,0.00,VWS V14.01,2013-07-01 09:46:00,
2013-07-01 05:51:00,58.1,41.6,29.97,NE,45,2.7,2.7,54,0.00,,-RA,0.00,VWS V14.01,2013-07-01 09:51:00,
2013-07-01 05:56:00,58.3,41.2,29.97,North,0,1.1,1.1,53,0.00,,-RA,0.00,VWS V14.01,2013-07-01 09:56:00,
2013-07-01 06:01:00,58.3,41.7,29.97,ENE,68,4.3,4.3,54,0.00,,-RA,0.00,VWS V14.01,2013-07-01 10:01:00,
2013-07-01 06:06:00,58.3,41.2,29.97,NW,315,2.0,2.0,53,0.00,,-RA,0.00,VWS V14.01,2013-07-01 10:06:00,
2013-07-01 06:11:00,58.3,41.7,29.97,North,0,0.0,0.0,54,0.00,,-RA,0.00,VWS V14.01,2013-07-01 10:11:00,
2013-07-01 06:16:00,58.1,41.6,29.97,NNE,22,1.1,1.1,54,0.00,,-RA,0.00,VWS V14.01,2013-07-01 10:16:00,
2013-07-01 06:21:00,58.3,41.7,29.97,NE,45,2.0,2.0,54,0.00,,-RA,0.00,VWS V14.01,2013-07-01 10:21:00,
2013-07-01 06:26:00,58.3,41.7,29.97,NNW,338,2.5,2.5,54,0.00,,-RA,0.00,VWS V14.01,2013-07-01 10:26:00,
2013-07-01 06:31:00,58.3,41.7,29.97,North,0,2.7,2.7,54,0.00,,-RA,0.00,VWS V14.01,2013-07-01 10:31:00,
2013-07-01 06:36:00,58.5,41.9,29.97,NNE,22,2.9,2.9,54,0.00,,-RA,0.00,VWS V14.01,2013-07-01 10:36:00,
2013-07-01 06:41:00,58.6,42.1,29.97,North,0,2.5,2.5,54,0.00,,-RA,0.00,VWS V14.01,2013-07-01 10:41:00,
2013-07-01 06:46:00,58.6,42.1,30.00,North,0,6.5,6.5,54,0.00,,-RA,0.00,VWS V14.01,2013-07-01 10:46:00,
2013-07-01 06:51:00,58.8,41.7,30.00,North,0,3.6,3.6,53,0.00,,-RA,0.00,VWS V14.01,2013-07-01 10:51:00,
2013-07-01 06:56:00,59.0,41.9,30.00,NNE,22,1.6,1.6,53,0.00,,-RA,0.00,VWS V14.01,2013-07-01 10:56:00,
2013-07-01 07:01:00,59.2,42.1,29.97,NE,45,0.0,0.0,53,0.00,,-RA,0.00,VWS V14.01,2013-07-01 11:01:00,
2013-07-01 07:06:00,59.2,42.1,29.97,NE,45,1.6,1.6,53,0.00,,-RA,0.00,VWS V14.01,2013-07-01 11:06:00,
2013-07-01 07:11:00,59.4,42.2,29.97,NNE,22,1.1,1.1,53,0.00,,-RA,0.00,VWS V14.01,2013-07-01 11:11:00,
2013-07-01 07:16:00,59.5,41.9,29.97,NNE,22,1.3,1.3,52,0.00,,-RA,0.00,VWS V14.01,2013-07-01 11:16:00,
2013-07-01 07:21:00,59.7,42.1,29.97,NW,315,2.5,2.5,52,0.00,,-RA,0.00,VWS V14.01,2013-07-01 11:21:00,
2013-07-01 07:25:00,59.9,42.2,29.97,NNE,22,2.5,2.5,52,0.00,,-RA,0.00,VWS V14.01,2013-07-01 11:25:00,
2013-07-01 07:30:00,60.1,42.4,30.00,NNE,22,2.0,2.0,52,0.00,,-RA,0.00,VWS V14.01,2013-07-01 11:30:00,
2013-07-01 07:35:00,60.4,42.8,30.00,NNW,338,3.4,3.4,52,0.00,,-RA,0.00,VWS V14.01,2013-07-01 11:35:00,
2013-07-01 07:40:00,60.6,42.9,30.00,North,0,3.4,3.4,52,0.00,,-RA,0.00,VWS V14.01,2013-07-01 11:40:00,
2013-07-01 07:45:00,60.8,42.6,30.00,NNE,22,2.5,2.5,51,0.00,,-RA,0.00,VWS V14.01,2013-07-01 11:45:00,
2013-07-01 07:50:00,61.0,42.7,30.00,North,0,3.6,3.6,51,0.00,,-RA,0.00,VWS V14.01,2013-07-01 11:50:00,
2013-07-01 07:55:00,61.3,43.1,30.00,ENE,68,3.4,3.4,51,0.00,,-RA,0.00,VWS V14.01,2013-07-01 11:55:00,
2013-07-01 08:00:00,61.3,43.1,30.00,ENE,68,2.7,2.7,51,0.00,,-RA,0.00,VWS V14.01,2013-07-01 12:00:00,
2013-07-01 08:05:00,61.7,43.4,30.00,NW,315,3.4,3.4,51,0.00,,-RA,0.00,VWS V14.01,2013-07-01 12:05:00,
2013-07-01 08:10:00,61.9,43.6,30.00,NNE,22,2.2,2.2,51,0.00,,-RA,0.00,VWS V14.01,2013-07-01 12:10:00,
2013-07-01 08:15:00,62.1,43.2,30.00,ENE,68,3.8,3.8,50,0.00,,-RA,0.00,VWS V14.01,2013-07-01 12:15:00,
2013-07-01 08:20:00,62.4,43.5,30.00,NNW,338,0.0,0.0,50,0.00,,-RA,0.00,VWS V14.01,2013-07-01 12:20:00,
2013-07-01 08:25:00,62.8,43.4,30.00,North,0,7.8,7.8,49,0.00,,-RA,0.00,VWS V14.01,2013-07-01 12:25:00,
2013-07-01 08:30:00,63.0,43.5,30.00,NE,45,1.6,1.6,49,0.00,,-RA,0.00,VWS V14.01,2013-07-01 12:30:00,
2013-07-01 08:35:00,63.1,43.2,30.00,North,0,2.5,2.5,48,0.00,,-RA,0.00,VWS V14.01,2013-07-01 12:35:00,
2013-07-01 08:40:00,63.5,43.5,30.00,ENE,68,1.6,1.6,48,0.00,,-RA,0.00,VWS V14.01,2013-07-01 12:40:00,
2013-07-01 08:45:00,63.9,43.8,30.00,NE,45,4.7,4.7,48,0.00,,-RA,0.00,VWS V14.01,2013-07-01 12:45:00,
2013-07-01 08:50:00,64.2,43.6,30.00,North,0,1.6,1.6,47,0.00,,-RA,0.00,VWS V14.01,2013-07-01 12:50:00,
2013-07-01 08:55:00,64.4,43.8,30.00,North,0,2.7,2.7,47,0.00,,-RA,0.00,VWS V14.01,2013-07-01 12:55:00,
2013-07-01 09:00:00,64.9,43.7,30.00,NNW,338,0.9,0.9,46,0.00,,-RA,0.00,VWS V14.01,2013-07-01 13:00:00,
2013-07-01 09:05:00,65.3,43.4,30.00,NNE,22,5.8,5.8,45,0.00,,-RA,0.00,VWS V14.01,2013-07-01 13:05:00,
2013-07-01 09:10:00,65.7,43.8,30.00,NNE,22,4.0,4.0,45,0.00,,-RA,0.00,VWS V14.01,2013-07-01 13:10:00,
2013-07-01 09:15:00,66.0,44.1,30.00,NNW,338,1.3,1.3,45,0.00,,-RA,0.00,VWS V14.01,2013-07-01 13:15:00,
2013-07-01 09:20:00,66.4,44.4,30.00,NE,45,1.1,1.1,45,0.00,,-RA,0.00,VWS V14.01,2013-07-01 13:20:00,
2013-07-01 09:25:00,66.7,44.8,30.00,NNW,338,0.0,0.0,45,0.00,,-RA,0.00,VWS V14.01,2013-07-01 13:25:00,
2013-07-01 09:30:00,66.9,43.7,30.03,East,90,4.0,4.0,43,0.00,,-RA,0.00,VWS V14.01,2013-07-01 13:30:00,
2013-07-01 09:35:00,67.1,43.3,30.03,ENE,68,6.3,6.3,42,0.00,,-RA,0.00,VWS V14.01,2013-07-01 13:35:00,
2013-07-01 09:40:00,67.1,43.9,30.03,NE,45,2.9,2.9,43,0.00,,-RA,0.00,VWS V14.01,2013-07-01 13:40:00,
2013-07-01 09:45:00,67.3,44.0,30.00,NNW,338,3.1,3.1,43,0.00,,-RA,0.00,VWS V14.01,2013-07-01 13:45:00,
2013-07-01 09:50:00,67.6,44.4,30.00,South,180,2.9,2.9,43,0.00,,-RA,0.00,VWS V14.01,2013-07-01 13:50:00,
2013-07-01 09:55:00,68.2,44.2,30.00,NNE,22,2.9,2.9,42,0.00,,-RA,0.00,VWS V14.01,2013-07-01 13:55:00,
2013-07-01 10:00:00,68.5,44.6,30.00,NE,45,3.1,3.1,42,0.00,,-RA,0.00,VWS V14.01,2013-07-01 14:00:00,
2013-07-01 10:05:00,68.9,44.9,30.00,NNE,22,4.9,4.9,42,0.00,,-RA,0.00,VWS V14.01,2013-07-01 14:05:00,
2013-07-01 10:10:00,69.1,45.0,30.00,North,0,6.3,6.3,42,0.00,,-RA,0.00,VWS V14.01,2013-07-01 14:10:00,
2013-07-01 10:15:00,69.1,45.0,30.03,NNW,338,0.0,0.0,42,0.00,,-RA,0.00,VWS V14.01,2013-07-01 14:15:00,
2013-07-01 10:20:00,69.1,44.4,30.03,ENE,68,3.8,3.8,41,0.00,,-RA,0.00,VWS V14.01,2013-07-01 14:20:00,
2013-07-01 10:25:00,68.7,44.7,30.03,NNE,22,1.6,1.6,42,0.00,,-RA,0.00,VWS V14.01,2013-07-01 14:25:00,
2013-07-01 10:30:00,68.5,44.6,30.03,North,0,4.0,4.0,42,0.00,,-RA,0.00,VWS V14.01,2013-07-01 14:30:00,
2013-07-01 10:35:00,68.5,45.2,30.03,North,0,2.9,2.9,43,0.00,,-RA,0.00,VWS V14.01,2013-07-01 14:35:00,
2013-07-01 10:40:00,68.4,45.0,30.03,SSE,158,5.6,5.6,43,0.00,,-RA,0.00,VWS V14.01,2013-07-01 14:40:00,
2013-07-01 10:45:00,68.4,45.0,30.00,NE,45,3.6,3.6,43,0.00,,-RA,0.00,VWS V14.01,2013-07-01 14:45:00,
2013-07-01 10:50:00,68.4,45.6,30.00,NW,315,3.8,3.8,44,0.00,,-RA,0.00,VWS V14.01,2013-07-01 14:50:00,
2013-07-01 10:55:00,68.2,44.9,30.00,NE,45,4.3,4.3,43,0.00,,-RA,0.00,VWS V14.01,2013-07-01 14:55:00,
2013-07-01 11:00:00,68.4,45.6,30.03,ENE,68,6.5,6.5,44,0.00,,-RA,0.00,VWS V14.01,2013-07-01 15:00:00,
2013-07-01 11:05:00,68.2,45.5,30.03,WNW,292,1.1,1.1,44,0.00,,-RA,0.00,VWS V14.01,2013-07-01 15:05:00,
2013-07-01 11:10:00,68.2,45.5,30.03,North,0,4.3,4.3,44,0.00,,-RA,0.00,VWS V14.01,2013-07-01 15:10:00,
2013-07-01 11:15:00,68.2,45.5,30.03,NNE,22,2.0,2.0,44,0.00,,-RA,0.00,VWS V14.01,2013-07-01 15:15:00,
2013-07-01 11:20:00,68.4,45.6,30.03,NE,45,2.2,2.2,44,0.00,,-RA,0.00,VWS V14.01,2013-07-01 15:20:00,
2013-07-01 11:25:00,68.5,45.8,30.03,NNW,338,3.4,3.4,44,0.00,,-RA,0.00,VWS V14.01,2013-07-01 15:25:00,
2013-07-01 11:30:00,68.5,45.8,30.03,SE,135,3.4,3.4,44,0.00,,-RA,0.00,VWS V14.01,2013-07-01 15:30:00,
2013-07-01 11:35:00,68.7,46.0,30.03,NNE,22,5.4,5.4,44,0.00,,-RA,0.00,VWS V14.01,2013-07-01 15:35:00,
2013-07-01 11:40:00,68.9,46.1,30.03,North,0,3.4,3.4,44,0.00,,-RA,0.00,VWS V14.01,2013-07-01 15:40:00,
2013-07-01 11:45:00,69.3,47.0,30.03,NNW,338,2.7,2.7,45,0.00,,-RA,0.00,VWS V14.01,2013-07-01 15:45:00,
2013-07-01 11:50:00,69.8,46.9,30.03,WSW,248,2.9,2.9,44,0.00,,-RA,0.00,VWS V14.01,2013-07-01 15:50:00,
2013-07-01 11:55:00,70.3,46.8,30.03,NE,45,3.4,3.4,43,0.00,,-RA,0.00,VWS V14.01,2013-07-01 15:55:00,
2013-07-01 12:00:00,71.1,47.5,30.03,North,0,3.1,3.1,43,0.00,,-RA,0.00,VWS V14.01,2013-07-01 16:00:00,
2013-07-01 12:05:00,71.6,46.0,30.03,NE,45,2.9,2.9,40,0.00,,-RA,0.00,VWS V14.01,2013-07-01 16:05:00,
2013-07-01 12:10:00,72.3,47.3,30.03,NNW,338,1.3,1.3,41,0.00,,-RA,0.00,VWS V14.01,2013-07-01 16:10:00,
2013-07-01 12:15:00,73.4,48.3,30.03,NNE,22,6.3,6.3,41,0.00,,-RA,0.00,VWS V14.01,2013-07-01 16:15:00,
2013-07-01 12:20:00,73.4,44.8,30.03,NE,45,2.9,2.9,36,0.00,,-RA,0.00,VWS V14.01,2013-07-01 16:20:00,
2013-07-01 12:25:00,73.8,45.2,30.03,WSW,248,2.2,2.2,36,0.00,,-RA,0.00,VWS V14.01,2013-07-01 16:25:00,
2013-07-01 12:30:00,73.9,45.3,30.03,NNE,22,3.4,3.4,36,0.00,,-RA,0.00,VWS V14.01,2013-07-01 16:30:00,
2013-07-01 12:35:00,74.1,44.8,30.03,NNE,22,5.4,5.4,35,0.00,,-RA,0.00,VWS V14.01,2013-07-01 16:35:00,
2013-07-01 12:40:00,73.4,44.1,30.03,North,0,15.2,15.2,35,0.00,,-RA,0.00,VWS V14.01,2013-07-01 16:40:00,
2013-07-01 12:45:00,73.2,44.0,30.03,NNE,22,5.8,5.8,35,0.00,,-RA,0.00,VWS V14.01,2013-07-01 16:45:00,
2013-07-01 12:50:00,72.9,44.4,30.03,ENE,68,4.0,4.0,36,0.00,,-RA,0.00,VWS V14.01,2013-07-01 16:50:00,
2013-07-01 12:55:00,73.0,45.2,30.03,North,0,3.6,3.6,37,0.00,,-RA,0.00,VWS V14.01,2013-07-01 16:55:00,
2013-07-01 13:00:00,73.2,45.4,30.03,NNE,22,3.6,3.6,37,0.00,,-RA,0.00,VWS V14.01,2013-07-01 17:00:00,
2013-07-01 13:05:00,73.8,46.6,30.03,North,0,6.3,6.3,38,0.00,,-RA,0.00,VWS V14.01,2013-07-01 17:05:00,
2013-07-01 13:10:00,73.9,46.0,30.03,North,0,8.7,8.7,37,0.00,,-RA,0.00,VWS V14.01,2013-07-01 17:10:00,
2013-07-01 13:15:00,74.3,46.4,30.03,NNW,338,4.9,4.9,37,0.00,,-RA,0.00,VWS V14.01,2013-07-01 17:15:00,
2013-07-01 13:20:00,74.8,48.2,30.03,East,90,5.4,5.4,39,0.00,,-RA,0.00,VWS V14.01,2013-07-01 17:20:00,
2013-07-01 13:25:00,75.9,48.5,30.03,NE,45,4.3,4.3,38,0.00,,-RA,0.00,VWS V14.01,2013-07-01 17:25:00,
2013-07-01 13:30:00,76.3,48.1,30.03,NNW,338,3.1,3.1,37,0.00,,-RA,0.00,VWS V14.01,2013-07-01 17:30:00,
2013-07-01 13:35:00,77.0,48.8,30.03,NNE,22,6.7,6.7,37,0.00,,-RA,0.00,VWS V14.01,2013-07-01 17:35:00,
2013-07-01 13:40:00,77.0,47.3,30.03,North,0,7.2,7.2,35,0.00,,-RA,0.00,VWS V14.01,2013-07-01 17:40:00,
2013-07-01 13:45:00,77.2,46.7,30.03,North,0,4.3,4.3,34,0.00,,-RA,0.00,VWS V14.01,2013-07-01 17:45:00,
2013-07-01 13:50:00,77.5,45.4,30.03,NNE,22,12.1,12.1,32,0.00,,-RA,0.00,VWS V14.01,2013-07-01 17:50:00,
2013-07-01 13:55:00,77.5,46.2,30.03,NNE,22,9.8,9.8,33,0.00,,-RA,0.00,VWS V14.01,2013-07-01 17:55:00,
2013-07-01 14:00:00,77.2,45.1,30.03,NNW,338,5.4,5.4,32,0.00,,-RA,0.00,VWS V14.01,2013-07-01 18:00:00,
2013-07-01 14:05:00,76.3,44.3,30.03,North,0,3.8,3.8,32,0.00,,-RA,0.00,VWS V14.01,2013-07-01 18:05:00,
2013-07-01 14:10:00,75.9,44.0,30.03,North,0,5.8,5.8,32,0.00,,-RA,0.00,VWS V14.01,2013-07-01 18:10:00,
2013-07-01 14:15:00,75.7,43.8,30.03,NE,45,7.2,7.2,32,0.00,,-RA,0.00,VWS V14.01,2013-07-01 18:15:00,
2013-07-01 14:20:00,75.6,43.7,30.03,NE,45,10.3,10.3,32,0.00,,-RA,0.00,VWS V14.01,2013-07-01 18:20:00,
2013-07-01 14:25:00,75.6,43.7,30.03,North,0,6.0,6.0,32,0.00,,-RA,0.00,VWS V14.01,2013-07-01 18:25:00,
2013-07-01 14:30:00,75.6,43.7,30.03,NNE,22,2.0,2.0,32,0.00,,-RA,0.00,VWS V14.01,2013-07-01 18:30:00,
2013-07-01 14:35:00,75.9,44.8,30.03,SSE,158,3.1,3.1,33,0.00,,-RA,0.00,VWS V14.01,2013-07-01 18:35:00,
2013-07-01 14:40:00,75.9,44.8,30.03,NNE,22,2.7,2.7,33,0.00,,-RA,0.00,VWS V14.01,2013-07-01 18:40:00,
2013-07-01 14:45:00,76.3,45.1,30.00,North,0,7.2,7.2,33,0.00,,-RA,0.00,VWS V14.01,2013-07-01 18:45:00,
2013-07-01 14:50:00,76.8,44.8,30.00,ENE,68,4.0,4.0,32,0.00,,-RA,0.00,VWS V14.01,2013-07-01 18:50:00,
2013-07-01 14:55:00,77.7,44.7,30.00,WNW,292,4.0,4.0,31,0.00,,-RA,0.00,VWS V14.01,2013-07-01 18:55:00,
2013-07-01 15:00:00,78.1,45.0,30.03,SE,135,6.5,6.5,31,0.00,,-RA,0.00,VWS V14.01,2013-07-01 19:00:00,
2013-07-01 15:05:00,78.6,45.5,30.03,East,90,5.6,5.6,31,0.00,,-RA,0.00,VWS V14.01,2013-07-01 19:05:00,
2013-07-01 15:10:00,78.6,45.5,30.03,North,0,2.9,2.9,31,0.00,,-RA,0.00,VWS V14.01,2013-07-01 19:10:00,
2013-07-01 15:15:00,78.6,44.6,30.03,NNE,22,3.1,3.1,30,0.00,,-RA,0.00,VWS V14.01,2013-07-01 19:15:00,
2013-07-01 15:20:00,77.9,44.0,30.03,ENE,68,5.6,5.6,30,0.00,,-RA,0.00,VWS V14.01,2013-07-01 19:20:00,
2013-07-01 15:25:00,77.9,44.0,30.03,South,180,7.6,7.6,30,0.00,,-RA,0.00,VWS V14.01,2013-07-01 19:25:00,
2013-07-01 15:30:00,77.5,43.7,30.00,ENE,68,4.9,4.9,30,0.00,,-RA,0.00,VWS V14.01,2013-07-01 19:30:00,
2013-07-01 15:35:00,77.0,43.2,30.00,ENE,68,2.7,2.7,30,0.00,,-RA,0.00,VWS V14.01,2013-07-01 19:35:00,
2013-07-01 15:40:00,77.0,43.2,30.00,North,0,4.3,4.3,30,0.00,,-RA,0.00,VWS V14.01,2013-07-01 19:40:00,
2013-07-01 15:45:00,77.0,43.2,30.00,WNW,292,1.6,1.6,30,0.00,,-RA,0.00,VWS V14.01,2013-07-01 19:45:00,
2013-07-01 15:50:00,78.3,45.2,30.00,SSE,158,3.8,3.8,31,0.00,,-RA,0.00,VWS V14.01,2013-07-01 19:50:00,
2013-07-01 15:55:00,78.1,45.0,30.00,WNW,292,2.2,2.2,31,0.00,,-RA,0.00,VWS V14.01,2013-07-01 19:55:00,
2013-07-01 16:00:00,78.3,45.2,30.00,NE,45,17.0,17.0,31,0.00,,-RA,0.00,VWS V14.01,2013-07-01 20:00:00,
2013-07-01 16:05:00,77.9,44.0,30.00,NNE,22,11.9,11.9,30,0.00,,-RA,0.00,VWS V14.01,2013-07-01 20:05:00,
2013-07-01 16:10:00,77.4,43.5,30.00,SE,135,3.4,3.4,30,0.00,,-RA,0.00,VWS V14.01,2013-07-01 20:10:00,
2013-07-01 16:15:00,78.1,45.0,30.03,SSE,158,3.8,3.8,31,0.00,,-RA,0.00,VWS V14.01,2013-07-01 20:15:00,
2013-07-01 16:20:00,77.5,43.7,30.03,ENE,68,2.7,2.7,30,0.00,,-RA,0.00,VWS V14.01,2013-07-01 20:20:00,
2013-07-01 16:25:00,77.2,43.4,30.03,SE,135,4.0,4.0,30,0.00,,-RA,0.00,VWS V14.01,2013-07-01 20:25:00,
2013-07-01 16:30:00,76.8,43.9,30.03,NNE,22,10.3,10.3,31,0.00,,-RA,0.00,VWS V14.01,2013-07-01 20:30:00,
2013-07-01 16:35:00,76.6,43.8,30.03,WNW,292,9.4,9.4,31,0.00,,-RA,0.00,VWS V14.01,2013-07-01 20:35:00,
2013-07-01 16:40:00,75.9,43.1,30.03,East,90,5.4,5.4,31,0.00,,-RA,0.00,VWS V14.01,2013-07-01 20:40:00,
2013-07-01 16:45:00,75.9,43.1,30.00,NNE,22,6.3,6.3,31,0.00,,-RA,0.00,VWS V14.01,2013-07-01 20:45:00,
2013-07-01 16:50:00,76.3,43.5,30.00,NNE,22,12.3,12.3,31,0.00,,-RA,0.00,VWS V14.01,2013-07-01 20:50:00,
2013-07-01 16:55:00,76.3,43.5,30.00,East,90,2.9,2.9,31,0.00,,-RA,0.00,VWS V14.01,2013-07-01 20:55:00,
2013-07-01 17:00:00,75.6,42.8,30.00,NE,45,6.5,6.5,31,0.00,,-RA,0.00,VWS V14.01,2013-07-01 21:00:00,
2013-07-01 17:05:00,75.7,43.0,30.00,SSW,202,5.4,5.4,31,0.00,,-RA,0.00,VWS V14.01,2013-07-01 21:05:00,
2013-07-01 17:10:00,75.9,43.1,30.00,WSW,248,5.6,5.6,31,0.00,,-RA,0.00,VWS V14.01,2013-07-01 21:10:00,
2013-07-01 17:15:00,75.4,42.7,30.03,North,0,5.4,5.4,31,0.00,,-RA,0.00,VWS V14.01,2013-07-01 21:15:00,
2013-07-01 17:20:00,75.2,43.3,30.03,South,180,1.6,1.6,32,0.00,,-RA,0.00,VWS V14.01,2013-07-01 21:20:00,
2013-07-01 17:25:00,75.4,42.7,30.03,NE,45,8.5,8.5,31,0.00,,-RA,0.00,VWS V14.01,2013-07-01 21:25:00,
2013-07-01 17:30:00,75.4,43.5,30.03,NE,45,5.4,5.4,32,0.00,,-RA,0.00,VWS V14.01,2013-07-01 21:30:00,
2013-07-01 17:35:00,75.0,43.2,30.03,NNE,22,7.2,7.2,32,0.00,,-RA,0.00,VWS V14.01,2013-07-01 21:35:00,
2013-07-01 17:40:00,74.8,43.0,30.03,NNE,22,6.5,6.5,32,0.00,,-RA,0.00,VWS V14.01,2013-07-01 21:40:00,
2013-07-01 17:45:00,75.4,43.5,30.03,SE,135,4.3,4.3,32,0.00,,-RA,0.00,VWS V14.01,2013-07-01 21:45:00,
2013-07-01 17:50:00,75.4,43.5,30.03,SSE,158,1.1,1.1,32,0.00,,-RA,0.00,VWS V14.01,2013-07-01 21:50:00,
2013-07-01 17:55:00,75.4,43.5,30.03,North,0,2.5,2.5,32,0.00,,-RA,0.00,VWS V14.01,2013-07-01 21:55:00,
2013-07-01 18:00:00,75.2,44.2,30.03,SSE,158,1.1,1.1,33,0.00,,-RA,0.00,VWS V14.01,2013-07-01 22:00:00,
2013-07-01 18:05:00,74.8,43.8,30.03,South,180,5.8,5.8,33,0.00,,-RA,0.00,VWS V14.01,2013-07-01 22:05:00,
2013-07-01 18:10:00,74.7,43.7,30.03,ESE,112,7.4,7.4,33,0.00,,-RA,0.00,VWS V14.01,2013-07-01 22:10:00,
2013-07-01 18:15:00,74.5,43.5,30.03,ENE,68,4.9,4.9,33,0.00,,-RA,0.00,VWS V14.01,2013-07-01 22:15:00,
2013-07-01 18:20:00,74.5,43.5,30.03,NNE,22,2.7,2.7,33,0.00,,-RA,0.00,VWS V14.01,2013-07-01 22:20:00,
2013-07-01 18:25:00,74.3,42.6,30.03,WSW,248,7.8,7.8,32,0.00,,-RA,0.00,VWS V14.01,2013-07-01 22:25:00,
2013-07-01 18:30:00,74.3,42.6,30.03,South,180,2.9,2.9,32,0.00,,-RA,0.00,VWS V14.01,2013-07-01 22:30:00,
2013-07-01 18:35:00,74.1,42.4,30.03,NNE,22,9.2,9.2,32,0.00,,-RA,0.00,VWS V14.01,2013-07-01 22:35:00,
2013-07-01 18:40:00,73.9,42.2,30.03,South,180,6.3,6.3,32,0.00,,-RA,0.00,VWS V14.01,2013-07-01 22:40:00,
2013-07-01 18:45:00,73.8,42.1,30.00,NW,315,6.3,6.3,32,0.00,,-RA,0.00,VWS V14.01,2013-07-01 22:45:00,
2013-07-01 18:50:00,73.6,41.9,30.00,NNE,22,8.7,8.7,32,0.00,,-RA,0.00,VWS V14.01,2013-07-01 22:50:00,
2013-07-01 18:55:00,73.4,42.6,30.00,SE,135,3.8,3.8,33,0.00,,-RA,0.00,VWS V14.01,2013-07-01 22:55:00,
2013-07-01 19:00:00,73.4,42.6,30.03,WSW,248,1.1,1.1,33,0.00,,-RA,0.00,VWS V14.01,2013-07-01 23:00:00,
2013-07-01 19:05:00,73.4,43.3,30.03,ESE,112,2.2,2.2,34,0.00,,-RA,0.00,VWS V14.01,2013-07-01 23:05:00,
2013-07-01 19:10:00,73.4,43.3,30.03,East,90,5.4,5.4,34,0.00,,-RA,0.00,VWS V14.01,2013-07-01 23:10:00,
2013-07-01 19:15:00,73.0,43.8,30.03,NE,45,5.8,5.8,35,0.00,,-RA,0.00,VWS V14.01,2013-07-01 23:15:00,
2013-07-01 19:20:00,72.5,43.3,30.03,NE,45,6.5,6.5,35,0.00,,-RA,0.00,VWS V14.01,2013-07-01 23:20:00,
2013-07-01 19:25:00,71.8,43.4,30.03,SSE,158,2.9,2.9,36,0.00,,-RA,0.00,VWS V14.01,2013-07-01 23:25:00,
2013-07-01 19:31:00,71.6,43.3,30.03,East,90,2.5,2.5,36,0.00,,-RA,0.00,VWS V14.01,2013-07-01 23:31:00,
2013-07-01 19:36:00,71.4,43.1,30.03,NNE,22,2.9,2.9,36,0.00,,-RA,0.00,VWS V14.01,2013-07-01 23:36:00,
2013-07-01 19:41:00,71.4,43.1,30.03,East,90,5.8,5.8,36,0.00,,-RA,0.00,VWS V14.01,2013-07-01 23:41:00,
2013-07-01 19:46:00,71.2,42.9,30.03,ENE,68,3.1,3.1,36,0.00,,-RA,0.00,VWS V14.01,2013-07-01 23:46:00,
2013-07-01 19:51:00,71.2,43.7,30.03,NE,45,6.3,6.3,37,0.00,,-RA,0.00,VWS V14.01,2013-07-01 23:51:00,
2013-07-01 19:56:00,71.2,43.7,30.03,SE,135,3.1,3.1,37,0.00,,-RA,0.00,VWS V14.01,2013-07-01 23:56:00,
2013-07-01 20:01:00,71.1,43.5,30.03,SSE,158,2.7,2.7,37,0.00,,-RA,0.00,VWS V14.01,2013-07-02 00:01:00,
2013-07-01 20:06:00,71.1,44.2,30.03,West,270,1.1,1.1,38,0.00,,-RA,0.00,VWS V14.01,2013-07-02 00:06:00,
2013-07-01 20:11:00,70.9,44.0,30.03,North,0,4.7,4.7,38,0.00,,-RA,0.00,VWS V14.01,2013-07-02 00:11:00,
2013-07-01 20:16:00,70.7,44.5,30.03,NNW,338,2.0,2.0,39,0.00,,-RA,0.00,VWS V14.01,2013-07-02 00:16:00,
2013-07-01 20:21:00,70.7,45.2,30.03,NW,315,2.5,2.5,40,0.00,,-RA,0.00,VWS V14.01,2013-07-02 00:21:00,
2013-07-01 20:26:00,70.3,44.2,30.03,South,180,1.6,1.6,39,0.00,,-RA,0.00,VWS V14.01,2013-07-02 00:26:00,
2013-07-01 20:31:00,70.3,44.9,30.03,NNE,22,2.5,2.5,40,0.00,,-RA,0.00,VWS V14.01,2013-07-02 00:31:00,
2013-07-01 20:36:00,70.2,45.4,30.03,NNE,22,1.1,1.1,41,0.00,,-RA,0.00,VWS V14.01,2013-07-02 00:36:00,
2013-07-01 20:41:00,69.8,45.1,30.03,North,0,1.3,1.3,41,0.00,,-RA,0.00,VWS V14.01,2013-07-02 00:41:00,
2013-07-01 20:46:00,69.6,45.5,30.03,NNE,22,0.0,0.0,42,0.00,,-RA,0.00,VWS V14.01,2013-07-02 00:46:00,
2013-07-01 20:51:00,69.4,45.4,30.03,WNW,292,3.1,3.1,42,0.00,,-RA,0.00,VWS V14.01,2013-07-02 00:51:00,
2013-07-01 20:56:00,69.3,45.2,30.03,ESE,112,5.6,5.6,42,0.00,,-RA,0.00,VWS V14.01,2013-07-02 00:56:00,
2013-07-01 21:01:00,69.1,45.7,30.03,ENE,68,5.8,5.8,43,0.00,,-RA,0.00,VWS V14.01,2013-07-02 01:01:00,
2013-07-01 21:06:00,68.9,45.5,30.03,NE,45,2.5,2.5,43,0.00,,-RA,0.00,VWS V14.01,2013-07-02 01:06:00,
2013-07-01 21:11:00,68.7,45.3,30.03,ENE,68,2.7,2.7,43,0.00,,-RA,0.00,VWS V14.01,2013-07-02 01:11:00,
2013-07-01 21:16:00,68.5,44.6,30.03,NE,45,3.1,3.1,42,0.00,,-RA,0.00,VWS V14.01,2013-07-02 01:16:00,
2013-07-01 21:21:00,68.4,44.4,30.03,ENE,68,2.2,2.2,42,0.00,,-RA,0.00,VWS V14.01,2013-07-02 01:21:00,
2013-07-01 21:26:00,68.0,44.1,30.03,NE,45,2.5,2.5,42,0.00,,-RA,0.00,VWS V14.01,2013-07-02 01:26:00,
2013-07-01 21:31:00,67.8,43.9,30.03,NNE,22,3.1,3.1,42,0.00,,-RA,0.00,VWS V14.01,2013-07-02 01:31:00,
2013-07-01 21:36:00,67.6,43.1,30.03,NE,45,3.1,3.1,41,0.00,,-RA,0.00,VWS V14.01,2013-07-02 01:36:00,
2013-07-01 21:41:00,67.3,42.2,30.03,WSW,248,2.7,2.7,40,0.00,,-RA,0.00,VWS V14.01,2013-07-02 01:41:00,
2013-07-01 21:46:00,67.1,42.0,30.03,NE,45,0.9,0.9,40,0.00,,-RA,0.00,VWS V14.01,2013-07-02 01:46:00,
2013-07-01 21:51:00,66.9,41.8,30.03,SE,135,3.1,3.1,40,0.00,,-RA,0.00,VWS V14.01,2013-07-02 01:51:00,
2013-07-01 21:56:00,66.7,41.0,30.03,South,180,2.7,2.7,39,0.00,,-RA,0.00,VWS V14.01,2013-07-02 01:56:00,
2013-07-01 22:01:00,66.6,40.9,30.03,SSE,158,0.0,0.0,39,0.00,,-RA,0.00,VWS V14.01,2013-07-02 02:01:00,
2013-07-01 22:06:00,66.4,40.7,30.03,NNE,22,2.0,2.0,39,0.00,,-RA,0.00,VWS V14.01,2013-07-02 02:06:00,
2013-07-01 22:11:00,66.2,40.5,30.03,NE,45,6.0,6.0,39,0.00,,-RA,0.00,VWS V14.01,2013-07-02 02:11:00,
2013-07-01 22:16:00,66.0,41.0,30.03,NNE,22,2.0,2.0,40,0.00,,-RA,0.00,VWS V14.01,2013-07-02 02:16:00,
2013-07-01 22:21:00,65.8,40.2,30.03,ENE,68,5.4,5.4,39,0.00,,-RA,0.00,VWS V14.01,2013-07-02 02:21:00,
2013-07-01 22:26:00,65.7,40.0,30.03,NNW,338,3.8,3.8,39,0.00,,-RA,0.00,VWS V14.01,2013-07-02 02:26:00,
2013-07-01 22:31:00,65.5,39.9,30.03,NNE,22,0.9,0.9,39,0.00,,-RA,0.00,VWS V14.01,2013-07-02 02:31:00,
2013-07-01 22:36:00,65.3,39.7,30.03,SSW,202,0.0,0.0,39,0.00,,-RA,0.00,VWS V14.01,2013-07-02 02:36:00,
2013-07-01 22:41:00,65.1,39.6,30.03,NE,45,3.6,3.6,39,0.00,,-RA,0.00,VWS V14.01,2013-07-02 02:41:00,
2013-07-01 22:46:00,65.1,39.6,30.06,North,0,2.0,2.0,39,0.00,,-RA,0.00,VWS V14.01,2013-07-02 02:46:00,
2013-07-01 22:51:00,64.9,39.4,30.06,NNW,338,1.1,1.1,39,0.00,,-RA,0.00,VWS V14.01,2013-07-02 02:51:00,
2013-07-01 22:56:00,64.8,39.2,30.06,East,90,2.5,2.5,39,0.00,,-RA,0.00,VWS V14.01,2013-07-02 02:56:00,
2013-07-01 23:01:00,64.8,39.2,30.06,ESE,112,3.8,3.8,39,0.00,,-RA,0.00,VWS V14.01,2013-07-02 03:01:00,
2013-07-01 23:06:00,64.6,39.1,30.06,ENE,68,3.6,3.6,39,0.00,,-RA,0.00,VWS V14.01,2013-07-02 03:06:00,
2013-07-01 23:11:00,64.4,38.9,30.06,North,0,4.3,4.3,39,0.00,,-RA,0.00,VWS V14.01,2013-07-02 03:11:00,
2013-07-01 23:16:00,64.4,38.9,30.06,NNE,22,2.0,2.0,39,0.00,,-RA,0.00,VWS V14.01,2013-07-02 03:16:00,
2013-07-01 23:21:00,64.2,38.8,30.06,SW,225,2.5,2.5,39,0.00,,-RA,0.00,VWS V14.01,2013-07-02 03:21:00,
2013-07-01 23:26:00,64.2,39.4,30.06,South,180,1.3,1.3,40,0.00,,-RA,0.00,VWS V14.01,2013-07-02 03:26:00,
2013-07-01 23:31:00,64.0,39.2,30.06,NNW,338,2.7,2.7,40,0.00,,-RA,0.00,VWS V14.01,2013-07-02 03:31:00,
2013-07-01 23:36:00,64.0,39.2,30.06,NE,45,5.8,5.8,40,0.00,,-RA,0.00,VWS V14.01,2013-07-02 03:36:00,
2013-07-01 23:41:00,63.9,39.1,30.06,NNE,22,1.3,1.3,40,0.00,,-RA,0.00,VWS V14.01,2013-07-02 03:41:00,
2013-07-01 23:46:00,63.7,38.3,30.06,NE,45,4.0,4.0,39,0.00,,-RA,0.00,VWS V14.01,2013-07-02 03:46:00,
2013-07-01 23:51:00,63.5,38.1,30.06,North,0,3.1,3.1,39,0.00,,-RA,0.00,VWS V14.01,2013-07-02 03:51:00,
2013-07-01 23:56:00,63.5,37.5,30.06,WNW,292,1.1,1.1,38,0.00,,-RA,0.00,VWS V14.01,2013-07-02 03:56:00,